Regional Weather Roundup
Issued by NWS

Home | Current Version | Previous Version | Graphics & Text | Print | Product List | Glossary On
Versions: 1 2 3 4 5 6 7 8 9 10 11 12 13 14 15 16 17 18 19 20 21 22 23 24 25 26 27 28 29 30 31 32 33 34 35 36 37 38 39 40 41 42 43 44 45 46 47 48 49 50
548
ASUS43 KLOT 021908
RWRIL

ILLINOIS REGIONAL WEATHER ROUNDUP
NATIONAL WEATHER SERVICE CHICAGO/ROMEOVILLE IL
100 PM CST FRI DEC 02 2016

NOTE: "FAIR" INDICATES FEW OR NO CLOUDS BELOW 12,000 FEET WITH NO
SIGNIFICANT WEATHER AND/OR OBSTRUCTIONS TO VISIBILITY.

* THESE STATIONS ARE NOT UNDER NWS QUALITY CONTROL. THEY ALSO MAY NOT
  REPORT WEATHER SUCH AS PRECIPITATION OR FOG.

ILZ001-002-007-009-015-016-024-022000-
NORTHWEST ILLINOIS

CITY           SKY/WX    TMP DP  RH WIND       PRES   REMARKS
MOLINE         CLOUDY    41  30  65 NW9       30.22F
STERLING*      CLOUDY    40  30  67 W14       30.21
SAVANNA*       CLOUDY    39  27  62 NW12      30.22R WCI  32
$$

ILZ003-004-008-010-011-017-018-022000-
NORTH CENTRAL ILLINOIS

CITY           SKY/WX    TMP DP  RH WIND       PRES   REMARKS
ROCKFORD       CLOUDY    38  28  67 NW9       30.22R WCI  31
FREEPORT*      CLOUDY    35  28  74 NW8       30.22R WCI  29
ROCHELLE*      CLOUDY    38  32  78 W9        30.21R WCI  32
DE KALB*       CLOUDY    37  32  83 NW8       30.19S WCI  30
$$

ILZ005-006-012>014-019>023-022000-
NORTHEAST ILLINOIS

CITY           SKY/WX    TMP DP  RH WIND       PRES   REMARKS
CHICAGO-OHARE  CLOUDY    39  27  62 N12       30.17R WCI  32
CHICAGO-MIDWAY CLOUDY    40  31  70 W7        30.18R
AURORA         CLOUDY    39  32  76 W10       30.20R WCI  32
LANSING*       CLOUDY    39  33  80 W9        30.18S WCI  33
JOLIET*        CLOUDY    41  35  79 W5        30.19S
WAUKEGAN       CLOUDY    37  25  61 NW9       30.17R WCI  30
DUPAGE AIRPORT CLOUDY    39  30  70 NW10      30.17R WCI  32
KANKAKEE*      CLOUDY    40  33  74 W10       30.20S
WHEELING       CLOUDY    37  27  67 NW8       30.19R WCI  31
MORRIS*        CLOUDY    40  33  75 W12       30.19R
ROMEOVILLE*    DRIZZLE   37  34  91 NW9       30.19R WCI  30
NORTHERLY ISL    N/A     40  29  65 NW8         N/A
$$

LMZ740>746-022000-
SOUTHERN LAKE MICHIGAN

STATION/POSITION SKY/WX   TEMP    WIND        PRES    VSBY  WAVE
                          AIR SEA DIR/SP/G                  HT/PER
                          (F)     (DEG/KT/KT) (MB)    (MI)  (FT/S)
SOUTHERN BUOY              37 49  300/ 14/ 17 1021.3R         3/ 6
HARRISON CRIB              40     330/  9/ 11   N/A
BURNHAM HARBOR             40     330/  8/ 12   N/A
CALUMET HARBOR             40     250/  4/ 10 1021.2R
BURNS HARBOR               41     300/ 16/ 20 1021.7R
MICHIGAN CITY              39     290/ 17/ 19   N/A
$$

ILZ025>027-034>036-040-047-049-050-058-095>099-022000-
WEST-CENTRAL ILLINOIS

CITY           SKY/WX    TMP DP  RH WIND       PRES   REMARKS
QUINCY         CLOUDY    43  31  62 CALM      30.25S
GALESBURG*     CLOUDY    41  32  70 NW8       30.22F
MACOMB*        PTSUNNY   43  32  65 W7        30.26S
JACKSONVILLE*  PTSUNNY   42  32  67 W10       30.25S
PITTSFIELD*    CLOUDY    44  32  63 NW10      30.27R
$$

ILZ028>032-037-038-041>044-048-051>054-059>061-022000-
CENTRAL ILLINOIS

CITY           SKY/WX    TMP DP  RH WIND       PRES   REMARKS
PONTIAC        CLOUDY    41  37  84 W10       30.22R
BLOOMINGTON    CLOUDY    40  32  73 W10       30.22S
DECATUR        CLOUDY    41  30  65 W10       30.24R
PEORIA         CLOUDY    41  32  70 W9        30.23S
LACON*         CLOUDY    40  32  75 W7        30.21S
LINCOLN*       CLOUDY    42  33  72 NW6       30.24S
SPRINGFIELD    CLOUDY    42  33  70 W7        30.25S
TAYLORVILLE    CLOUDY    40  31  71 NW8       30.25S
$$

ILZ033-039-045-046-055>057-062-063-022000-
EAST-CENTRAL ILLINOIS

CITY           SKY/WX    TMP DP  RH WIND       PRES   REMARKS
CHAMPAIGN      CLOUDY    40  33  76 W15       30.23R
RANTOUL*       CLOUDY    41  35  80 W12       30.22R
MATTOON        CLOUDY    40  29  64 W12       30.24R
PARIS*         CLOUDY    40  34  78 W14       30.24R
$$

ILZ079-100>102-022000-
SOUTHWEST ILLINOIS

CITY           SKY/WX    TMP DP  RH WIND       PRES   REMARKS
ALTON          MOSUNNY   43  32  65 NW8       30.27S
BELLEVILLE     SUNNY     49  30  48 NW9       30.26S
CAHOKIA*       SUNNY     48  29  47 NW12      30.28R
SPARTA*        SUNNY     46  30  55 NW5       30.28S
$$

ILZ064>066-069>071-074>076-080>082-084>086-088>090-092>094-022000-
SOUTH-CENTRAL ILLINOIS

CITY           SKY/WX    TMP DP  RH WIND       PRES   REMARKS
CARBONDALE     SUNNY     48  32  53 N6        30.28S
CAIRO*         SUNNY     50  31  47 NE5       30.27F
EFFINGHAM*     CLOUDY    43  33  67 W10       30.27S
MARION         SUNNY     48  32  53 NW6       30.28S
CENTRALIA*     MOSUNNY   46  34  61 W9        30.26F
SALEM*         PTSUNNY   46  32  58 W10       30.26S
METROPOLIS*    SUNNY     49  30  47 CALM      30.28S
$$

ILZ067-068-072-073-078-083-087-091-022000-
SOUTHEAST ILLINOIS

CITY           SKY/WX    TMP DP  RH WIND       PRES   REMARKS
LAWRENCEVILLE  PTSUNNY   44  31  60 NW8       30.26S
FLORA*         SUNNY     45  31  58 NW9       30.27S
FAIRFIELD*     SUNNY     45  30  57 NW5       30.26S
HARRISBURG*    SUNNY     47  32  56 W6        30.27S
ROBINSON*      CLOUDY    41  31  68 W9        30.26S
CARMI*         SUNNY     45  33  63 NW6       30.27S
$$

ABBREVIATIONS USED IN REMARKS
   TC - TEMPERATURE IN CELSIUS
  WCI - WIND CHILL INDEX
   HX - HEAT INDEX
  VSB - VISIBILITY
$$





USA.gov is the U.S. government's official web portal to all federal, state and local government web resources and services.